Oxford, NC

6:11 AM EST on December 12, 2019 (GMT -0500)
Henderson-Oxford

Weather History for KHNZ - October, 2019

Change the Weather History Date:

Saturday, October 19, 2019

  Actual Average (KTDF) Record (KTDF)
Temperature  
Mean Temperature 48 °F -  
Max Temperature 62 °F 69 °F 86 °F (2016)
Min Temperature 35 °F 43 °F 28 °F (1976)
Degree Days  
Heating Degree Days 16    
Moisture  
Dew Point 39 °F    
Average Humidity 69    
Maximum Humidity 97    
Minimum Humidity 37    
Precipitation  
Precipitation 0.00 in - - ()
Sea Level Pressure  
Sea Level Pressure 30.06 in    
Wind  
Wind Speed 0 mph (SE)    
Max Wind Speed 6 mph    
Max Gust Speed -    
Visibility 10 miles    
Events Rain    
Averages and records for this station are not official NWS values.
T = Trace of Precipitation, MM = Missing Value Source: NWS Daily Summary

Daily Weather History Graph

Daily Weather History Graph

Search for Another Location

Airport or City:

Astronomy

Oct. 19, 2019 Rise Set
Actual Time 7:24 AM EDT 6:33 PM EDT
Civil Twilight 6:58 AM EDT 6:59 PM EDT
Nautical Twilight 6:28 AM EDT 7:29 PM EDT
Astronomical Twilight 5:58 AM EDT 7:58 PM EDT
Moon 10:47 PM EDT (10/19) 12:48 PM EDT (10/19)
Length of Visible Light 12h 00m
Length of Day
11h 08m
Waning Gibbous, 70% of the Moon is Illuminated
Oct 19
Waning Gibbous
Oct 21
Last Quarter
Oct 27
New
Nov 4
First Quarter
Nov 12
Full

Hourly Weather History & Observations

Time (EDT) Temp. Dew Point Humidity Pressure Visibility Wind Dir Wind Speed Gust Speed Precip Events Conditions
12:15 AM 40.5 °F 39.0 °F 95% 30.05 in 10.0 mi Calm Calm - N/A   Clear
12:35 AM 40.8 °F 38.8 °F 93% 30.05 in 10.0 mi Calm Calm - N/A   Clear
12:55 AM 39.2 °F 37.4 °F 93% 30.05 in 10.0 mi Calm Calm - N/A   Clear
1:15 AM 40.3 °F 38.5 °F 93% 30.05 in 10.0 mi Calm Calm - N/A   Clear
1:35 AM 39.4 °F 38.3 °F 96% 30.06 in 10.0 mi Calm Calm - N/A   Clear
1:55 AM 39.6 °F 38.1 °F 95% 30.07 in 10.0 mi Calm Calm - N/A   Clear
2:15 AM 39.4 °F 37.0 °F 91% 30.07 in 10.0 mi Calm Calm - N/A   Clear
2:35 AM 39.0 °F 37.4 °F 94% 30.07 in 10.0 mi Calm Calm - N/A   Clear
2:55 AM 38.8 °F 36.3 °F 91% 30.08 in 10.0 mi Calm Calm - N/A   Clear
3:15 AM 37.6 °F 36.0 °F 94% 30.08 in 10.0 mi Calm Calm - N/A   Clear
3:35 AM 38.3 °F 36.7 °F 94% 30.08 in 10.0 mi Calm Calm - N/A   Clear
3:55 AM 38.3 °F 36.7 °F 94% 30.08 in 10.0 mi Calm Calm - N/A   Clear
4:15 AM 38.3 °F 36.9 °F 95% 30.08 in 10.0 mi Calm Calm - N/A   Clear
4:35 AM 40.1 °F 37.6 °F 91% 30.07 in 10.0 mi Calm Calm - N/A   Clear
4:55 AM 40.5 °F 37.8 °F 90% 30.06 in 10.0 mi Calm Calm - N/A   Clear
5:15 AM 39.4 °F 37.9 °F 95% 30.06 in 10.0 mi Calm Calm - N/A   Clear
5:35 AM 38.3 °F 36.9 °F 95% 30.07 in 10.0 mi Calm Calm - N/A   Clear
5:55 AM 37.4 °F 36.5 °F 97% 30.06 in 10.0 mi Calm Calm - N/A   Clear
6:15 AM 35.8 °F 35.1 °F 97% 30.07 in 10.0 mi Calm Calm - N/A   Clear
6:35 AM 36.0 °F 35.2 °F 97% 30.08 in 10.0 mi Calm Calm - N/A   Clear
6:55 AM 36.3 °F 35.2 °F 96% 30.09 in 10.0 mi Calm Calm - N/A   Clear
7:15 AM 37.6 °F 35.8 °F 93% 30.09 in 10.0 mi Calm Calm - N/A   Clear
7:35 AM 37.8 °F 36.1 °F 94% 30.09 in 10.0 mi Calm Calm - N/A   Clear
7:55 AM 37.0 °F 36.0 °F 96% 30.10 in 10.0 mi Calm Calm - N/A   Scattered Clouds
8:15 AM 38.3 °F 37.4 °F 97% 30.10 in 10.0 mi Calm Calm - N/A   Scattered Clouds
8:35 AM 41.7 °F 39.7 °F 93% 30.11 in 10.0 mi Calm Calm - N/A   Clear
8:55 AM 45.9 °F 42.1 °F 87% 30.12 in 10.0 mi Calm Calm - N/A   Clear
9:15 AM 49.3 °F 42.3 °F 77% 30.12 in 10.0 mi Calm Calm - N/A   Clear
9:35 AM 52.2 °F 42.8 °F 70% 30.12 in 10.0 mi Calm Calm - N/A   Clear
9:55 AM 54.5 °F 42.1 °F 63% 30.12 in 10.0 mi Calm Calm - N/A   Clear
10:15 AM 54.7 °F 40.1 °F 58% 30.12 in 10.0 mi Calm Calm - N/A   Clear
10:35 AM 55.6 °F 40.1 °F 56% 30.12 in 10.0 mi Calm Calm - N/A   Clear
10:55 AM 56.7 °F 39.4 °F 52% 30.13 in 10.0 mi Calm Calm - N/A   Clear
11:15 AM 57.7 °F 39.0 °F 50% 30.13 in 10.0 mi Calm Calm - N/A   Clear
11:35 AM 58.8 °F 38.7 °F 47% 30.13 in 10.0 mi Calm Calm - N/A   Clear
11:55 AM 58.3 °F 37.4 °F 46% 30.13 in 10.0 mi Calm Calm - N/A   Clear
12:15 PM 60.6 °F 37.0 °F 42% 30.12 in 10.0 mi Calm Calm - N/A   Clear
12:35 PM 60.4 °F 35.6 °F 40% 30.12 in 10.0 mi Calm Calm - N/A   Clear
12:55 PM 60.8 °F 36.7 °F 41% 30.10 in 10.0 mi Calm Calm - N/A   Clear
1:15 PM 62.6 °F 36.1 °F 37% 30.09 in 10.0 mi SSE 5.8 mph - N/A   Clear
1:35 PM 61.7 °F 37.2 °F 40% 30.09 in 10.0 mi Calm Calm - N/A   Clear
1:55 PM 61.5 °F 36.7 °F 40% 30.08 in 10.0 mi Calm Calm - N/A   Clear
2:15 PM 61.3 °F 36.7 °F 40% 30.07 in 10.0 mi Calm Calm - N/A   Clear
2:35 PM 61.0 °F 36.7 °F 40% 30.07 in 10.0 mi Calm Calm - N/A   Clear
2:55 PM 61.3 °F 36.9 °F 40% 30.06 in 10.0 mi Calm Calm - N/A   Clear
3:15 PM 61.7 °F 37.8 °F 41% 30.05 in 10.0 mi Calm Calm - N/A   Clear
3:35 PM 61.2 °F 38.5 °F 43% 30.05 in 10.0 mi SE 5.8 mph - N/A   Clear
3:55 PM 60.8 °F 38.7 °F 44% 30.05 in 10.0 mi SSE 3.5 mph - N/A   Clear
4:15 PM 60.4 °F 38.3 °F 44% 30.04 in 10.0 mi Calm Calm - N/A   Clear
4:55 PM 59.5 °F 39.9 °F 48% 30.04 in 10.0 mi Calm Calm - N/A   Clear
5:15 PM 59.4 °F 40.6 °F 50% 30.04 in 10.0 mi Calm Calm - N/A   Clear
5:35 PM 59.0 °F 40.8 °F 51% 30.02 in 10.0 mi Calm Calm - N/A   Clear
6:15 PM 58.3 °F 41.2 °F 53% 30.02 in 10.0 mi Calm Calm - N/A   Clear
6:35 PM 57.9 °F 41.2 °F 54% 30.02 in 10.0 mi Calm Calm - N/A   Clear
6:55 PM 55.9 °F 45.1 °F 67% 30.02 in 10.0 mi Calm Calm - N/A Rain Light Rain
7:15 PM 55.8 °F 43.7 °F 64% 30.02 in 10.0 mi Calm Calm - N/A   Mostly Cloudy
7:35 PM 55.4 °F 43.9 °F 65% 30.01 in 10.0 mi ESE 4.6 mph - N/A   Scattered Clouds
7:55 PM 55.8 °F 43.3 °F 63% 30.01 in 10.0 mi Calm Calm - N/A   Mostly Cloudy
8:15 PM 55.9 °F 43.0 °F 62% 30.02 in 10.0 mi Calm Calm - N/A   Overcast
8:35 PM 56.3 °F 43.2 °F 61% 30.00 in 10.0 mi Calm Calm - N/A   Overcast
9:15 PM 56.3 °F 43.5 °F 62% 30.00 in 10.0 mi Calm Calm - N/A   Overcast
9:35 PM 56.8 °F 42.1 °F 58% 30.00 in 10.0 mi Calm Calm - N/A   Overcast
9:55 PM 57.2 °F 42.1 °F 57% 30.00 in 10.0 mi Calm Calm - N/A   Overcast
10:15 PM 57.2 °F 41.9 °F 57% 29.99 in 10.0 mi East 5.8 mph - N/A   Mostly Cloudy
10:35 PM 57.2 °F 42.3 °F 57% 29.99 in 10.0 mi Calm Calm - N/A   Overcast
10:55 PM 57.2 °F 42.4 °F 58% 29.99 in 10.0 mi Calm Calm - N/A   Overcast
11:15 PM 57.2 °F 42.8 °F 59% 29.99 in 10.0 mi Calm Calm - N/A   Overcast
11:35 PM 57.0 °F 43.7 °F 61% 29.98 in 10.0 mi Calm Calm - N/A   Overcast
11:55 PM 56.7 °F 44.4 °F 64% 29.97 in 10.0 mi Calm Calm - N/A   Mostly Cloudy